EDW131G HEGN-LSZH

Flight info

Callsign EDW131G
Flight time N/A
Altitude 38000
Route HGD V608 NABED T55 GINDI W8 ALPID/N0453F390 DCT GESON/N0455F380 Q777 RASDA DCT METRU DCT TIGRA DCT AIOSA DCT ROTAR DCT MOBDO DCT SOTOV/N0453F300 P66 KPT L856 NEGRA
Aircraft A20N/M-SDE2E3FGHIRWXY/LB1

Departure

Time 2026-05-07 13:39
Airport Hurghada International Airport (HEGN)

Arrival

Time N/A
Airport Zürich Airport (LSZH)
Time Latitude Longitude Altitude Speed Heading
2026-05-07 13:27 27.17856 33.80643 40 ft 0 kts 74°
2026-05-07 13:31 27.17852 33.80633 40 ft 3 kts 67°
2026-05-07 13:31 27.17845 33.80613 40 ft 3 kts 67°
2026-05-07 13:31 27.17838 33.80594 40 ft 3 kts 67°
2026-05-07 13:31 27.17833 33.80574 36 ft 3 kts 115°
2026-05-07 13:32 27.17843 33.80563 40 ft 0 kts 177°
2026-05-07 13:33 27.17842 33.80563 40 ft 2 kts 177°
2026-05-07 13:33 27.17807 33.80564 40 ft 7 kts 179°
2026-05-07 13:33 27.17759 33.80564 40 ft 7 kts 180°
2026-05-07 13:33 27.17707 33.80568 39 ft 12 kts 166°
2026-05-07 13:34 27.17625 33.80593 39 ft 11 kts 163°
2026-05-07 13:34 27.17487 33.80567 38 ft 14 kts 247°
2026-05-07 13:34 27.17467 33.80477 38 ft 11 kts 255°
2026-05-07 13:35 27.17414 33.80405 38 ft 13 kts 187°
2026-05-07 13:35 27.17332 33.80424 38 ft 11 kts 165°
2026-05-07 13:35 27.17221 33.80458 37 ft 18 kts 165°
2026-05-07 13:35 27.17098 33.80494 36 ft 18 kts 165°
2026-05-07 13:36 27.16979 33.80529 36 ft 17 kts 165°
2026-05-07 13:36 27.16865 33.80563 34 ft 17 kts 165°
2026-05-07 13:36 27.16750 33.80595 34 ft 17 kts 166°
2026-05-07 13:36 27.16638 33.80629 34 ft 16 kts 165°
2026-05-07 13:37 27.16529 33.80662 34 ft 16 kts 165°
2026-05-07 13:37 27.16422 33.80691 33 ft 12 kts 178°
2026-05-07 13:37 27.16374 33.80629 32 ft 15 kts 252°
2026-05-07 13:37 27.16383 33.80533 32 ft 11 kts 333°
2026-05-07 13:38 27.16420 33.80521 33 ft 0 kts 346°
2026-05-07 13:38 27.16427 33.80519 33 ft 10 kts 346°
2026-05-07 13:38 27.16749 33.80426 34 ft 86 kts 346°
2026-05-07 13:39 27.17588 33.80177 42 ft 159 kts 345°
2026-05-07 13:39 27.18690 33.79858 684 ft 163 kts 349°
2026-05-07 13:39 27.19761 33.79532 1568 ft 160 kts 343°
2026-05-07 13:39 27.20900 33.79135 1973 ft 183 kts 342°
2026-05-07 13:40 27.22204 33.78684 2273 ft 212 kts 342°
2026-05-07 13:40 27.23629 33.77965 2635 ft 235 kts 326°
2026-05-07 13:40 27.24768 33.76619 3321 ft 245 kts 300°
2026-05-07 13:40 27.25173 33.74743 4065 ft 253 kts 273°
2026-05-07 13:41 27.25096 33.72763 4928 ft 253 kts 266°
2026-05-07 13:41 27.24929 33.70793 5751 ft 255 kts 266°
2026-05-07 13:41 27.24748 33.68797 6429 ft 261 kts 265°
2026-05-07 13:41 27.24567 33.66735 7066 ft 265 kts 265°
2026-05-07 13:42 27.24392 33.64694 7984 ft 262 kts 265°
2026-05-07 13:42 27.24216 33.62622 8622 ft 270 kts 265°
2026-05-07 13:42 27.24038 33.60497 9266 ft 278 kts 265°
2026-05-07 13:42 27.23857 33.58339 10058 ft 278 kts 265°
2026-05-07 13:43 27.23674 33.56150 10455 ft 294 kts 265°
2026-05-07 13:43 27.23476 33.53781 10678 ft 315 kts 265°
2026-05-07 13:43 27.23266 33.51264 10946 ft 332 kts 265°
2026-05-07 13:43 27.23044 33.48614 11192 ft 348 kts 265°
2026-05-07 13:44 27.22813 33.45876 11574 ft 358 kts 265°
2026-05-07 13:44 27.22576 33.43051 11926 ft 366 kts 265°
2026-05-07 13:44 27.22332 33.40176 12385 ft 373 kts 265°
2026-05-07 13:44 27.22085 33.37268 12996 ft 374 kts 265°
2026-05-07 13:45 27.21859 33.34346 13627 ft 376 kts 267°
2026-05-07 13:45 27.21854 33.31404 14233 ft 377 kts 272°
2026-05-07 13:45 27.22007 33.28441 14723 ft 383 kts 275°
2026-05-07 13:45 27.22248 33.25457 15319 ft 386 kts 276°
2026-05-07 13:46 27.22526 33.22428 15839 ft 391 kts 276°
2026-05-07 13:46 27.22811 33.19403 16625 ft 388 kts 276°
2026-05-07 13:46 27.23088 33.16372 17248 ft 390 kts 276°
2026-05-07 13:46 27.23355 33.13327 17798 ft 395 kts 276°
2026-05-07 13:47 27.23618 33.10227 18239 ft 401 kts 276°
2026-05-07 13:47 27.23877 33.07097 18734 ft 405 kts 275°
2026-05-07 13:47 27.24134 33.03931 19203 ft 408 kts 275°
2026-05-07 13:47 27.24389 33.00752 19794 ft 410 kts 275°
2026-05-07 13:48 27.24646 32.97560 20407 ft 410 kts 276°
2026-05-07 13:48 27.24902 32.94356 20882 ft 415 kts 276°
2026-05-07 13:48 27.25162 32.91107 21348 ft 420 kts 275°
2026-05-07 13:48 27.25425 32.87821 21821 ft 423 kts 275°
2026-05-07 13:49 27.25687 32.84520 22404 ft 424 kts 276°
2026-05-07 13:49 27.25947 32.81248 22889 ft 427 kts 276°
2026-05-07 13:49 27.26209 32.77921 23411 ft 430 kts 275°
2026-05-07 13:49 27.26474 32.74556 23780 ft 433 kts 276°
2026-05-07 13:50 27.26741 32.71163 24115 ft 439 kts 276°
2026-05-07 13:50 27.27009 32.67746 24611 ft 439 kts 276°
2026-05-07 13:50 27.27277 32.64319 25059 ft 440 kts 276°
2026-05-07 13:50 27.27545 32.60882 25467 ft 443 kts 276°
2026-05-07 13:51 27.27815 32.57413 25800 ft 447 kts 276°
2026-05-07 13:51 27.28086 32.53916 26175 ft 450 kts 276°
2026-05-07 13:51 27.28358 32.50405 26592 ft 452 kts 276°
2026-05-07 13:51 27.28630 32.46876 26970 ft 454 kts 276°
2026-05-07 13:52 27.28902 32.43333 27345 ft 456 kts 276°
2026-05-07 13:52 27.29172 32.39789 27849 ft 454 kts 276°
2026-05-07 13:52 27.29441 32.36258 28399 ft 452 kts 276°
2026-05-07 13:52 27.29870 32.32774 28923 ft 448 kts 283°
2026-05-07 13:53 27.30693 32.29409 29439 ft 445 kts 291°
2026-05-07 13:53 27.31948 32.26241 29960 ft 442 kts 300°
2026-05-07 13:53 27.33594 32.23332 30396 ft 440 kts 305°
2026-05-07 13:53 27.35383 32.20550 30849 ft 438 kts 307°
2026-05-07 13:54 27.37225 32.17835 31315 ft 435 kts 308°
2026-05-07 13:54 27.39083 32.15159 31742 ft 433 kts 309°
2026-05-07 13:54 27.40939 32.12500 32153 ft 431 kts 309°
2026-05-07 13:54 27.42782 32.09853 32558 ft 429 kts 308°
2026-05-07 13:55 27.44611 32.07209 32977 ft 427 kts 309°
2026-05-07 13:55 27.46396 32.04613 33472 ft 422 kts 309°
2026-05-07 13:55 27.48182 32.02005 33920 ft 420 kts 309°
2026-05-07 13:55 27.49960 31.99401 34206 ft 419 kts 309°
2026-05-07 13:56 27.51732 31.96803 34452 ft 419 kts 309°
2026-05-07 13:56 27.53505 31.94202 34718 ft 418 kts 309°
2026-05-07 13:56 27.55274 31.91603 34969 ft 418 kts 308°
2026-05-07 13:56 27.57043 31.89005 35219 ft 417 kts 308°
2026-05-07 13:57 27.58808 31.86410 35453 ft 417 kts 308°
2026-05-07 13:57 27.60573 31.83816 35697 ft 417 kts 308°
2026-05-07 13:57 27.62334 31.81225 35928 ft 416 kts 308°
2026-05-07 13:57 27.64092 31.78636 36177 ft 415 kts 308°
2026-05-07 13:58 27.65839 31.76062 36519 ft 412 kts 308°
2026-05-07 13:58 27.67576 31.73500 36762 ft 411 kts 308°
2026-05-07 13:58 27.69313 31.70941 36972 ft 411 kts 308°
2026-05-07 13:58 27.71050 31.68379 37140 ft 411 kts 308°
2026-05-07 13:59 27.72786 31.65817 37325 ft 411 kts 308°
2026-05-07 13:59 27.74521 31.63255 37529 ft 410 kts 308°
2026-05-07 13:59 27.76251 31.60697 37711 ft 410 kts 308°
2026-05-07 13:59 27.77981 31.58138 37885 ft 410 kts 308°
2026-05-07 14:00 27.79711 31.55578 38036 ft 410 kts 308°
2026-05-07 14:00 27.83172 31.50452 38058 ft 409 kts 308°
2026-05-07 14:01 27.86579 31.45399 38060 ft 405 kts 308°
2026-05-07 14:01 27.89990 31.40334 38062 ft 405 kts 308°
2026-05-07 14:02 27.93521 31.35367 38061 ft 405 kts 314°
2026-05-07 14:02 27.97678 31.31078 38062 ft 405 kts 319°
2026-05-07 14:03 28.01992 31.26977 38064 ft 405 kts 320°
2026-05-07 14:03 28.06339 31.22915 38064 ft 404 kts 320°
2026-05-07 14:04 28.10639 31.18883 38062 ft 399 kts 320°
2026-05-07 14:04 28.14907 31.14863 38065 ft 399 kts 320°
2026-05-07 14:05 28.19166 31.10840 38065 ft 399 kts 320°
2026-05-07 14:05 28.23427 31.06810 38070 ft 399 kts 320°
2026-05-07 14:06 28.27687 31.02778 38067 ft 399 kts 320°
2026-05-07 14:06 28.31916 30.98770 38067 ft 399 kts 320°
2026-05-07 14:07 28.36175 30.94729 38058 ft 398 kts 321°
2026-05-07 14:07 28.40392 30.90723 38064 ft 393 kts 321°
2026-05-07 14:08 28.44579 30.86743 38064 ft 392 kts 321°
2026-05-07 14:08 28.48763 30.82762 38063 ft 392 kts 321°
2026-05-07 14:09 28.52944 30.78780 38065 ft 392 kts 321°
2026-05-07 14:09 28.57126 30.74791 38068 ft 392 kts 321°
2026-05-07 14:10 28.61312 30.70795 38066 ft 393 kts 321°
2026-05-07 14:10 28.65505 30.66787 38067 ft 393 kts 321°
2026-05-07 14:11 28.69693 30.62780 38064 ft 393 kts 321°
2026-05-07 14:11 28.73855 30.58793 38064 ft 393 kts 321°
2026-05-07 14:12 28.78043 30.54778 38062 ft 393 kts 321°
2026-05-07 14:12 28.82229 30.50760 38064 ft 393 kts 321°
2026-05-07 14:13 28.86413 30.46739 38064 ft 393 kts 321°
2026-05-07 14:13 28.90597 30.42713 38063 ft 393 kts 322°
2026-05-07 14:14 28.94778 30.38686 38051 ft 393 kts 322°
2026-05-07 14:14 28.98935 30.34677 38059 ft 389 kts 322°
2026-05-07 14:15 29.03069 30.30688 38057 ft 389 kts 322°
2026-05-07 14:15 29.07199 30.26699 38058 ft 389 kts 322°
2026-05-07 14:16 29.10631 30.23379 38062 ft 389 kts 322°
2026-05-07 14:16 29.14762 30.19380 38060 ft 389 kts 322°
2026-05-07 14:17 29.18889 30.15380 38074 ft 389 kts 322°
2026-05-07 14:17 29.23016 30.11376 38062 ft 389 kts 322°
2026-05-07 14:18 29.27127 30.07383 38061 ft 386 kts 322°
2026-05-07 14:18 29.31211 30.03410 38061 ft 385 kts 322°
2026-05-07 14:19 29.35292 29.99438 38055 ft 385 kts 322°
2026-05-07 14:19 29.39343 29.95491 38053 ft 385 kts 322°
2026-05-07 14:20 29.43424 29.91510 38056 ft 385 kts 322°
2026-05-07 14:20 29.47501 29.87529 38057 ft 385 kts 322°
2026-05-07 14:21 29.51575 29.83545 38056 ft 385 kts 322°
2026-05-07 14:21 29.55642 29.79564 38078 ft 383 kts 322°
2026-05-07 14:22 29.60322 29.74976 38059 ft 379 kts 322°
2026-05-07 14:22 29.63684 29.71678 38076 ft 379 kts 322°
2026-05-07 14:23 29.67672 29.67764 38057 ft 379 kts 322°
2026-05-07 14:23 29.71682 29.63821 38061 ft 379 kts 322°
2026-05-07 14:24 29.75690 29.59877 38064 ft 379 kts 322°
2026-05-07 14:24 29.79696 29.55930 38073 ft 379 kts 322°
2026-05-07 14:25 29.83699 29.51983 38062 ft 378 kts 322°
2026-05-07 14:25 29.87669 29.48062 38068 ft 375 kts 322°
2026-05-07 14:26 29.91627 29.44150 38059 ft 375 kts 322°
2026-05-07 14:26 29.95582 29.40237 38064 ft 375 kts 322°
2026-05-07 14:27 29.99534 29.36322 38074 ft 375 kts 322°
2026-05-07 14:27 30.03460 29.32429 38063 ft 375 kts 322°
2026-05-07 14:28 30.07411 29.28507 38076 ft 375 kts 322°
2026-05-07 14:28 30.11360 29.24583 38046 ft 374 kts 322°
2026-05-07 14:29 30.15299 29.20664 38075 ft 373 kts 322°
2026-05-07 14:29 30.19226 29.16753 38072 ft 372 kts 322°
2026-05-07 14:30 30.23147 29.12843 38076 ft 372 kts 322°
2026-05-07 14:30 30.27054 29.08943 38077 ft 371 kts 322°
2026-05-07 14:31 30.30954 29.05045 38085 ft 371 kts 321°
2026-05-07 14:31 30.34856 29.01144 38093 ft 371 kts 322°
2026-05-07 14:32 30.38758 28.97237 38086 ft 371 kts 321°
2026-05-07 14:32 30.42652 28.93330 38085 ft 369 kts 321°
2026-05-07 14:33 30.46515 28.89452 38099 ft 366 kts 321°
2026-05-07 14:33 30.50360 28.85590 38104 ft 366 kts 321°
2026-05-07 14:34 30.54178 28.81751 38124 ft 366 kts 321°
2026-05-07 14:34 30.57999 28.77903 38106 ft 362 kts 321°
2026-05-07 14:35 30.61790 28.74081 38114 ft 361 kts 321°
2026-05-07 14:35 30.65582 28.70256 38115 ft 361 kts 321°
2026-05-07 14:36 30.69374 28.66426 38120 ft 361 kts 321°
2026-05-07 14:36 30.73159 28.62598 38114 ft 360 kts 321°
2026-05-07 14:37 30.76935 28.58775 38126 ft 360 kts 321°
2026-05-07 14:37 30.82596 28.53037 38134 ft 360 kts 321°
2026-05-07 14:38 30.86370 28.49206 38126 ft 360 kts 321°
2026-05-07 14:38 30.90128 28.45386 38128 ft 357 kts 321°
2026-05-07 14:39 30.93860 28.41589 38132 ft 356 kts 321°
2026-05-07 14:39 30.97590 28.37791 38142 ft 356 kts 321°
2026-05-07 14:40 31.01292 28.34017 38129 ft 355 kts 321°
2026-05-07 14:40 31.05010 28.30222 38134 ft 355 kts 321°
2026-05-07 14:41 31.08726 28.26426 38128 ft 355 kts 321°
2026-05-07 14:41 31.12439 28.22629 38130 ft 355 kts 321°
2026-05-07 14:42 31.16152 28.18827 38143 ft 355 kts 321°
2026-05-07 14:42 31.19863 28.15024 38142 ft 355 kts 321°
2026-05-07 14:43 31.23565 28.11225 38131 ft 353 kts 321°
2026-05-07 14:43 31.27256 28.07433 38140 ft 353 kts 321°
2026-05-07 14:44 31.30942 28.03642 38147 ft 352 kts 320°
2026-05-07 14:44 31.34617 27.99859 38139 ft 352 kts 320°
2026-05-07 14:45 31.38291 27.96073 38134 ft 352 kts 320°
2026-05-07 14:45 31.41963 27.92285 38140 ft 352 kts 320°
2026-05-07 14:46 31.45609 27.88518 38147 ft 352 kts 320°
2026-05-07 14:46 31.49276 27.84727 38142 ft 352 kts 320°
2026-05-07 14:47 31.52942 27.80932 38150 ft 351 kts 320°
2026-05-07 14:47 31.56599 27.77143 38145 ft 350 kts 320°
2026-05-07 14:48 31.60250 27.73356 38135 ft 350 kts 320°
2026-05-07 14:48 31.63899 27.69567 38149 ft 350 kts 320°
2026-05-07 14:49 31.67549 27.65772 38145 ft 350 kts 320°
2026-05-07 14:49 31.71197 27.61976 38139 ft 350 kts 320°
2026-05-07 14:50 31.74843 27.58177 38144 ft 350 kts 320°
2026-05-07 14:50 31.78485 27.54378 38143 ft 350 kts 320°
2026-05-07 14:51 31.82104 27.50599 38143 ft 350 kts 320°
2026-05-07 14:51 31.85743 27.46796 38128 ft 349 kts 320°
2026-05-07 14:52 31.89363 27.43007 38147 ft 347 kts 320°
2026-05-07 14:52 31.92971 27.39227 38131 ft 347 kts 320°
2026-05-07 14:53 31.96577 27.35446 38137 ft 347 kts 320°
2026-05-07 14:53 32.00183 27.31660 38136 ft 347 kts 320°
2026-05-07 14:54 32.03789 27.27870 38138 ft 347 kts 320°
2026-05-07 14:54 32.07393 27.24078 38132 ft 347 kts 320°
2026-05-07 14:55 32.10995 27.20284 38132 ft 347 kts 320°
2026-05-07 14:55 32.14596 27.16486 38127 ft 347 kts 320°
2026-05-07 14:56 32.18195 27.12687 38140 ft 346 kts 320°
2026-05-07 14:56 32.21756 27.08923 38141 ft 346 kts 320°
2026-05-07 14:57 32.25337 27.05134 38146 ft 345 kts 320°
2026-05-07 14:57 32.28916 27.01344 38141 ft 345 kts 320°
2026-05-07 14:58 32.32493 26.97550 38140 ft 345 kts 320°
2026-05-07 14:58 32.36070 26.93753 38142 ft 345 kts 320°
2026-05-07 14:59 32.39645 26.89954 38141 ft 345 kts 320°
2026-05-07 14:59 32.43219 26.86152 38138 ft 346 kts 319°
2026-05-07 15:00 32.46800 26.82338 38148 ft 346 kts 319°
2026-05-07 15:00 32.50380 26.78520 38159 ft 346 kts 319°
2026-05-07 15:01 32.53951 26.74708 38145 ft 346 kts 319°
2026-05-07 15:01 32.57523 26.70891 38155 ft 346 kts 319°
2026-05-07 15:02 32.61097 26.67068 38145 ft 346 kts 319°
2026-05-07 15:02 32.64644 26.63269 38156 ft 346 kts 319°
2026-05-07 15:03 32.68215 26.59440 38149 ft 346 kts 319°
2026-05-07 15:03 32.71785 26.55608 38138 ft 346 kts 319°
2026-05-07 15:04 32.75367 26.51758 38145 ft 348 kts 319°
2026-05-07 15:04 32.78961 26.47891 38148 ft 348 kts 319°
2026-05-07 15:05 32.82550 26.44025 38148 ft 348 kts 319°
2026-05-07 15:05 32.86132 26.40163 38152 ft 347 kts 319°
2026-05-07 15:06 32.89709 26.36302 38149 ft 347 kts 319°
2026-05-07 15:06 32.93284 26.32437 38148 ft 347 kts 319°
2026-05-07 15:07 32.96859 26.28569 38149 ft 347 kts 319°
2026-05-07 15:07 33.00435 26.24696 38138 ft 348 kts 318°
2026-05-07 15:08 33.04036 26.20790 38146 ft 351 kts 318°
2026-05-07 15:08 33.07629 26.16889 38152 ft 352 kts 318°
2026-05-07 15:09 33.11246 26.12957 38148 ft 352 kts 318°
2026-05-07 15:09 33.14861 26.09022 38141 ft 352 kts 318°
2026-05-07 15:10 33.18478 26.05081 38144 ft 352 kts 318°
2026-05-07 15:10 33.22091 26.01140 38143 ft 352 kts 318°
2026-05-07 15:11 33.25705 25.97193 38143 ft 352 kts 318°
2026-05-07 15:11 33.29322 25.93238 38148 ft 354 kts 318°
2026-05-07 15:12 33.32975 25.89239 38148 ft 357 kts 318°
2026-05-07 15:12 33.36643 25.85220 38148 ft 358 kts 318°
2026-05-07 15:13 33.39690 25.81877 38146 ft 358 kts 318°
2026-05-07 15:13 33.43355 25.77851 38159 ft 358 kts 318°
2026-05-07 15:14 33.47007 25.73835 38148 ft 355 kts 318°
2026-05-07 15:14 33.50631 25.69843 38142 ft 353 kts 318°
2026-05-07 15:15 33.54252 25.65853 38149 ft 354 kts 318°
2026-05-07 15:15 33.57871 25.61858 38158 ft 355 kts 318°
2026-05-07 15:16 33.61511 25.57836 38148 ft 356 kts 318°
2026-05-07 15:16 33.65161 25.53799 38154 ft 357 kts 318°
2026-05-07 15:17 33.68808 25.49759 38139 ft 357 kts 318°
2026-05-07 15:17 33.72454 25.45715 38144 ft 357 kts 318°
2026-05-07 15:18 33.76100 25.41667 38152 ft 357 kts 318°
2026-05-07 15:18 33.79732 25.37629 38144 ft 355 kts 318°
2026-05-07 15:19 33.83323 25.33633 38137 ft 354 kts 318°
2026-05-07 15:19 33.86945 25.29598 38137 ft 356 kts 317°
2026-05-07 15:20 33.90581 25.25540 38149 ft 357 kts 317°
2026-05-07 15:20 33.94220 25.21474 38143 ft 357 kts 317°
2026-05-07 15:21 33.97860 25.17404 38135 ft 357 kts 317°
2026-05-07 15:21 34.01642 25.13536 38140 ft 357 kts 321°
2026-05-07 15:22 34.05568 25.09878 38135 ft 357 kts 322°
2026-05-07 15:22 34.09518 25.06258 38146 ft 355 kts 322°
2026-05-07 15:23 34.13444 25.02661 38135 ft 354 kts 322°
2026-05-07 15:23 34.17366 24.99056 38129 ft 355 kts 322°
2026-05-07 15:24 34.21304 24.95428 38131 ft 357 kts 322°
2026-05-07 15:24 34.25248 24.91790 38136 ft 357 kts 322°
2026-05-07 15:25 34.29164 24.88172 38138 ft 357 kts 322°
2026-05-07 15:25 34.33105 24.84527 38140 ft 357 kts 322°
2026-05-07 15:26 34.37045 24.80879 38149 ft 357 kts 321°
2026-05-07 15:26 34.40971 24.77241 38133 ft 354 kts 321°
2026-05-07 15:27 34.44882 24.73611 38149 ft 354 kts 321°
2026-05-07 15:27 34.48791 24.69978 38134 ft 354 kts 321°
2026-05-07 15:28 34.52702 24.66339 38135 ft 354 kts 321°
2026-05-07 15:28 34.56610 24.62699 38132 ft 354 kts 321°
2026-05-07 15:29 34.60519 24.59053 38132 ft 354 kts 321°
2026-05-07 15:29 34.64425 24.55405 38131 ft 354 kts 321°
2026-05-07 15:30 34.68329 24.51755 38134 ft 354 kts 321°
2026-05-07 15:30 34.72227 24.48106 38135 ft 353 kts 321°
2026-05-07 15:31 34.76095 24.44480 38135 ft 353 kts 321°
2026-05-07 15:31 34.79988 24.40827 38135 ft 354 kts 321°
2026-05-07 15:32 34.83883 24.37168 38134 ft 354 kts 321°
2026-05-07 15:32 34.87789 24.33493 38134 ft 355 kts 321°
2026-05-07 15:33 34.91703 24.29807 38133 ft 356 kts 321°
2026-05-07 15:33 34.95615 24.26118 38149 ft 356 kts 321°
2026-05-07 15:34 34.99518 24.22433 38132 ft 354 kts 321°
2026-05-07 15:34 35.03414 24.18749 38135 ft 354 kts 321°
2026-05-07 15:35 35.07306 24.15065 38135 ft 354 kts 321°
2026-05-07 15:35 35.11200 24.11375 38135 ft 354 kts 321°
2026-05-07 15:36 35.15094 24.07680 38135 ft 354 kts 321°
2026-05-07 15:36 35.18993 24.03976 38133 ft 355 kts 320°
2026-05-07 15:37 35.22896 24.00263 38128 ft 356 kts 320°
2026-05-07 15:37 35.26799 23.96549 38133 ft 355 kts 320°
2026-05-07 15:38 35.30670 23.92857 38138 ft 355 kts 320°
2026-05-07 15:38 35.34562 23.89135 38128 ft 355 kts 320°
2026-05-07 15:39 35.38457 23.85411 38125 ft 355 kts 320°
2026-05-07 15:39 35.42351 23.81684 38133 ft 355 kts 320°
2026-05-07 15:40 35.46246 23.77953 38124 ft 355 kts 320°
2026-05-07 15:40 35.50139 23.74218 38117 ft 355 kts 320°
2026-05-07 15:41 35.54031 23.70478 38132 ft 356 kts 319°
2026-05-07 15:41 35.57923 23.66734 38121 ft 355 kts 319°
2026-05-07 15:42 35.61804 23.62994 38121 ft 355 kts 319°
2026-05-07 15:42 35.65686 23.59250 38119 ft 355 kts 319°
2026-05-07 15:43 35.69542 23.55526 38119 ft 355 kts 319°
2026-05-07 15:43 35.73446 23.51751 38121 ft 355 kts 319°
2026-05-07 15:44 35.77299 23.48020 38119 ft 355 kts 319°
2026-05-07 15:44 35.81176 23.44261 38118 ft 355 kts 319°
2026-05-07 15:45 35.85054 23.40498 38121 ft 354 kts 319°
2026-05-07 15:45 35.88927 23.36734 38121 ft 354 kts 319°
2026-05-07 15:46 35.94732 23.31082 38121 ft 354 kts 319°
2026-05-07 15:47 35.98603 23.27308 38122 ft 354 kts 319°
2026-05-07 15:47 36.02468 23.23534 38124 ft 354 kts 319°
2026-05-07 15:48 36.06337 23.19752 38124 ft 354 kts 319°
2026-05-07 15:48 36.10203 23.15968 38124 ft 355 kts 319°
2026-05-07 15:49 36.14070 23.12177 38121 ft 355 kts 319°
2026-05-07 15:49 36.17911 23.08408 38122 ft 355 kts 318°
2026-05-07 15:50 36.21790 23.04595 38121 ft 356 kts 318°
2026-05-07 15:50 36.25673 23.00775 38122 ft 357 kts 318°
2026-05-07 15:51 36.29557 22.96949 38121 ft 357 kts 318°
2026-05-07 15:51 36.33440 22.93118 38120 ft 357 kts 318°
2026-05-07 15:52 36.37321 22.89285 38119 ft 356 kts 318°
2026-05-07 15:52 36.41199 22.85449 38121 ft 356 kts 318°
2026-05-07 15:53 36.45072 22.81614 38122 ft 356 kts 318°
2026-05-07 15:53 36.48938 22.77780 38110 ft 356 kts 317°
2026-05-07 15:54 36.52822 22.73922 38121 ft 359 kts 317°
2026-05-07 15:54 36.56725 22.70040 38118 ft 359 kts 317°
2026-05-07 15:55 36.60630 22.66153 38118 ft 359 kts 317°
2026-05-07 15:55 36.64534 22.62262 38119 ft 359 kts 317°
2026-05-07 15:56 36.68433 22.58369 38136 ft 359 kts 318°
2026-05-07 15:56 36.72323 22.54482 38115 ft 358 kts 317°
2026-05-07 15:57 36.76178 22.50623 38120 ft 358 kts 317°
2026-05-07 15:57 36.80060 22.46732 38119 ft 358 kts 317°
2026-05-07 15:58 36.83950 22.42826 38114 ft 360 kts 317°
2026-05-07 15:58 36.87868 22.38888 38114 ft 362 kts 317°
2026-05-07 15:59 36.91789 22.34943 38123 ft 362 kts 317°
2026-05-07 15:59 36.95710 22.30992 38115 ft 362 kts 317°
2026-05-07 16:00 36.99626 22.27040 38126 ft 361 kts 317°
2026-05-07 16:00 37.03535 22.23088 38128 ft 361 kts 317°
2026-05-07 16:01 37.07431 22.19148 38128 ft 359 kts 317°
2026-05-07 16:01 37.11320 22.15206 38125 ft 361 kts 317°
2026-05-07 16:02 37.15224 22.11244 38129 ft 362 kts 317°
2026-05-07 16:02 37.19150 22.07255 38123 ft 364 kts 317°
2026-05-07 16:03 37.23091 22.03247 38118 ft 365 kts 317°
2026-05-07 16:03 37.27018 21.99247 38101 ft 361 kts 317°
2026-05-07 16:04 37.30902 21.95286 38104 ft 359 kts 317°
2026-05-07 16:04 37.34778 21.91326 38093 ft 359 kts 317°
2026-05-07 16:05 37.38636 21.87379 38092 ft 361 kts 317°
2026-05-07 16:05 37.42521 21.83398 38094 ft 360 kts 317°
2026-05-07 16:06 37.46405 21.79413 38087 ft 360 kts 316°
2026-05-07 16:06 37.50297 21.75413 38090 ft 362 kts 316°
2026-05-07 16:07 37.53544 21.72072 38092 ft 362 kts 316°
2026-05-07 16:07 37.57431 21.68071 38088 ft 359 kts 316°
2026-05-07 16:08 37.61293 21.64089 38089 ft 359 kts 316°
2026-05-07 16:08 37.65152 21.60102 38091 ft 359 kts 316°
2026-05-07 16:09 37.69010 21.56111 38091 ft 358 kts 316°
2026-05-07 16:09 37.72865 21.52119 38090 ft 358 kts 316°
2026-05-07 16:10 37.76722 21.48119 38095 ft 359 kts 316°
2026-05-07 16:10 37.80580 21.44111 38113 ft 359 kts 316°
2026-05-07 16:11 37.84420 21.40121 38101 ft 356 kts 316°
2026-05-07 16:11 37.88246 21.36135 38103 ft 356 kts 316°
2026-05-07 16:12 37.92068 21.32148 38104 ft 356 kts 316°
2026-05-07 16:12 37.95890 21.28155 38103 ft 356 kts 316°
2026-05-07 16:13 37.99712 21.24159 38095 ft 356 kts 316°
2026-05-07 16:13 38.03532 21.20158 38093 ft 356 kts 316°
2026-05-07 16:14 38.07325 21.16180 38093 ft 356 kts 316°
2026-05-07 16:14 38.11132 21.12183 38090 ft 355 kts 315°
2026-05-07 16:15 38.14943 21.08173 38085 ft 356 kts 315°
2026-05-07 16:15 38.18761 21.04152 38082 ft 356 kts 315°
2026-05-07 16:16 38.22577 21.00129 38081 ft 356 kts 315°
2026-05-07 16:16 38.26392 20.96100 38078 ft 356 kts 315°
2026-05-07 16:17 38.30206 20.92066 38080 ft 356 kts 315°
2026-05-07 16:17 38.34018 20.88028 38081 ft 356 kts 315°
2026-05-07 16:18 38.37823 20.83994 38076 ft 355 kts 314°
2026-05-07 16:18 38.41601 20.79983 38072 ft 353 kts 314°
2026-05-07 16:19 38.45387 20.75953 38067 ft 355 kts 314°
2026-05-07 16:19 38.49189 20.71902 38066 ft 356 kts 314°
2026-05-07 16:20 38.52991 20.67847 38075 ft 356 kts 314°
2026-05-07 16:20 38.56791 20.63789 38070 ft 356 kts 314°
2026-05-07 16:21 38.60589 20.59727 38063 ft 356 kts 314°
2026-05-07 16:21 38.64357 20.55688 38077 ft 354 kts 313°
2026-05-07 16:22 38.68121 20.51653 38070 ft 352 kts 313°
2026-05-07 16:22 38.71874 20.47622 38070 ft 352 kts 313°
2026-05-07 16:23 38.75631 20.43578 38067 ft 354 kts 313°
2026-05-07 16:23 38.79408 20.39507 38067 ft 355 kts 313°
2026-05-07 16:24 38.83187 20.35431 38067 ft 355 kts 313°
2026-05-07 16:24 38.86966 20.31349 38067 ft 355 kts 313°
2026-05-07 16:25 38.90740 20.27267 38067 ft 355 kts 313°
2026-05-07 16:25 38.94515 20.23176 38067 ft 355 kts 313°
2026-05-07 16:26 38.98285 20.19085 38067 ft 355 kts 313°
2026-05-07 16:26 39.02057 20.14987 38066 ft 355 kts 313°
2026-05-07 16:27 39.05832 20.10877 38066 ft 357 kts 313°
2026-05-07 16:27 39.09631 20.06733 38061 ft 359 kts 313°
2026-05-07 16:28 39.13417 20.02604 38059 ft 359 kts 313°
2026-05-07 16:28 39.17223 19.98446 38065 ft 357 kts 312°
2026-05-07 16:29 39.20993 19.94325 38066 ft 354 kts 312°
2026-05-07 16:29 39.24740 19.90216 38061 ft 354 kts 312°
2026-05-07 16:30 39.28487 19.86100 38061 ft 354 kts 312°
2026-05-07 16:30 39.32231 19.81982 38064 ft 353 kts 312°
2026-05-07 16:31 39.35974 19.77862 38061 ft 354 kts 311°
2026-05-07 16:31 39.39721 19.73729 38073 ft 355 kts 311°
2026-05-07 16:32 39.43476 19.69582 38096 ft 355 kts 311°
2026-05-07 16:32 39.47225 19.65438 38065 ft 354 kts 311°
2026-05-07 16:33 39.50965 19.61296 38060 ft 354 kts 311°
2026-05-07 16:33 39.54705 19.57148 38061 ft 354 kts 311°
2026-05-07 16:34 39.58441 19.52997 38053 ft 354 kts 311°
2026-05-07 16:34 39.62155 19.48866 38051 ft 354 kts 311°
2026-05-07 16:35 39.65890 19.44705 38059 ft 354 kts 311°
2026-05-07 16:35 39.69636 19.40524 38080 ft 356 kts 310°
2026-05-07 16:36 39.73386 19.36335 38050 ft 356 kts 310°
2026-05-07 16:36 39.77137 19.32138 38050 ft 356 kts 310°
2026-05-07 16:37 39.80885 19.27938 38053 ft 356 kts 310°
2026-05-07 16:37 39.84631 19.23734 38045 ft 356 kts 310°
2026-05-07 16:38 39.88377 19.19524 38043 ft 356 kts 310°
2026-05-07 16:38 39.92121 19.15309 38045 ft 356 kts 310°
2026-05-07 16:39 39.95864 19.11089 38081 ft 356 kts 310°
2026-05-07 16:39 39.99607 19.06862 38047 ft 356 kts 310°
2026-05-07 16:40 40.03353 19.02626 38044 ft 356 kts 310°
2026-05-07 16:40 40.07273 18.98592 38043 ft 362 kts 314°
2026-05-07 16:41 40.11391 18.94795 38043 ft 363 kts 315°
2026-05-07 16:41 40.15516 18.91067 38046 ft 363 kts 315°
2026-05-07 16:42 40.19673 18.87312 38037 ft 363 kts 315°
2026-05-07 16:42 40.23820 18.83550 38045 ft 363 kts 315°
2026-05-07 16:43 40.27960 18.79784 38045 ft 362 kts 315°
2026-05-07 16:43 40.32096 18.76012 38047 ft 363 kts 314°
2026-05-07 16:44 40.36245 18.72220 38045 ft 364 kts 314°
2026-05-07 16:44 40.40402 18.68419 38048 ft 364 kts 314°
2026-05-07 16:45 40.44559 18.64615 38045 ft 364 kts 314°
2026-05-07 16:45 40.48716 18.60802 38045 ft 365 kts 314°
2026-05-07 16:46 40.52874 18.56982 38042 ft 365 kts 314°
2026-05-07 16:46 40.57032 18.53156 38042 ft 365 kts 314°
2026-05-07 16:47 40.61189 18.49327 38044 ft 365 kts 314°
2026-05-07 16:47 40.65348 18.45489 38042 ft 365 kts 314°
2026-05-07 16:48 40.69503 18.41648 38040 ft 367 kts 313°
2026-05-07 16:48 40.73692 18.37757 38036 ft 372 kts 314°
2026-05-07 16:49 40.77927 18.33836 38037 ft 371 kts 314°
2026-05-07 16:49 40.82153 18.29918 38037 ft 371 kts 314°
2026-05-07 16:50 40.86374 18.25993 38034 ft 371 kts 314°
2026-05-07 16:50 40.90597 18.22059 38039 ft 371 kts 314°
2026-05-07 16:51 40.94817 18.18120 38038 ft 371 kts 314°
2026-05-07 16:51 40.99029 18.14185 38034 ft 370 kts 313°
2026-05-07 16:52 41.03222 18.10262 38034 ft 369 kts 313°
2026-05-07 16:52 41.07409 18.06334 38036 ft 369 kts 313°
2026-05-07 16:53 41.11599 18.02398 38034 ft 369 kts 313°
2026-05-07 16:53 41.15785 17.98460 38034 ft 369 kts 313°
2026-05-07 16:54 41.19970 17.94517 38054 ft 369 kts 313°
2026-05-07 16:54 41.24180 17.90538 38034 ft 373 kts 313°
2026-05-07 16:55 41.28419 17.86531 38030 ft 374 kts 313°
2026-05-07 16:55 41.32663 17.82517 38032 ft 374 kts 313°
2026-05-07 16:56 41.36905 17.78498 38031 ft 374 kts 313°
2026-05-07 16:56 41.43231 17.72488 38031 ft 375 kts 313°
2026-05-07 16:57 41.47481 17.68438 38029 ft 376 kts 313°
2026-05-07 16:57 41.51736 17.64381 38032 ft 376 kts 313°
2026-05-07 16:58 41.55989 17.60320 38025 ft 376 kts 313°
2026-05-07 16:58 41.60239 17.56253 38026 ft 376 kts 313°
2026-05-07 16:59 41.63799 17.52843 38026 ft 376 kts 313°
2026-05-07 16:59 41.68045 17.48767 38040 ft 376 kts 313°
2026-05-07 17:00 41.72277 17.44694 38029 ft 378 kts 313°
2026-05-07 17:00 41.76552 17.40577 38028 ft 378 kts 313°
2026-05-07 17:01 41.80832 17.36450 38019 ft 380 kts 313°
2026-05-07 17:01 41.85129 17.32297 38020 ft 381 kts 313°
2026-05-07 17:02 41.89431 17.28136 38021 ft 381 kts 313°
2026-05-07 17:02 41.93617 17.23844 38022 ft 374 kts 309°
2026-05-07 17:03 41.97547 17.19306 38021 ft 371 kts 308°
2026-05-07 17:03 42.01420 17.14719 38018 ft 371 kts 308°
2026-05-07 17:04 42.05285 17.10118 38018 ft 371 kts 308°
2026-05-07 17:04 42.09152 17.05516 38021 ft 371 kts 308°
2026-05-07 17:05 42.13027 17.00906 38015 ft 372 kts 307°
2026-05-07 17:05 42.16911 16.96278 38034 ft 373 kts 308°
2026-05-07 17:06 42.20807 16.91626 38020 ft 375 kts 308°
2026-05-07 17:06 42.24719 16.86950 38019 ft 376 kts 308°
2026-05-07 17:07 42.28631 16.82268 38019 ft 376 kts 308°
2026-05-07 17:07 42.32543 16.77576 38017 ft 376 kts 308°
2026-05-07 17:08 42.36452 16.72879 38014 ft 376 kts 308°
2026-05-07 17:08 42.40361 16.68174 38049 ft 377 kts 308°
2026-05-07 17:09 42.44311 16.63397 38018 ft 385 kts 308°
2026-05-07 17:09 42.48310 16.58561 38014 ft 389 kts 309°
2026-05-07 17:10 42.52345 16.53690 38015 ft 388 kts 308°
2026-05-07 17:10 42.56376 16.48810 38015 ft 388 kts 308°
2026-05-07 17:11 42.60402 16.43922 38015 ft 388 kts 308°
2026-05-07 17:11 42.64425 16.39027 38015 ft 388 kts 308°
2026-05-07 17:12 42.68471 16.34085 38030 ft 395 kts 309°
2026-05-07 17:12 42.72574 16.29071 38014 ft 397 kts 309°
2026-05-07 17:13 42.76684 16.24049 38019 ft 397 kts 309°
2026-05-07 17:13 42.80791 16.19020 38014 ft 397 kts 309°
2026-05-07 17:14 42.84893 16.13985 38018 ft 397 kts 309°
2026-05-07 17:14 42.88994 16.08939 38045 ft 397 kts 309°
2026-05-07 17:15 42.93120 16.03845 38010 ft 403 kts 310°
2026-05-07 17:15 42.97291 15.98690 38021 ft 405 kts 310°
2026-05-07 17:16 43.01482 15.93507 38028 ft 407 kts 310°
2026-05-07 17:16 43.05683 15.88303 38024 ft 408 kts 310°
2026-05-07 17:17 43.09884 15.83088 38013 ft 408 kts 310°
2026-05-07 17:17 43.14053 15.77900 38019 ft 409 kts 310°
2026-05-07 17:18 43.18271 15.72636 38017 ft 411 kts 310°
2026-05-07 17:18 43.22503 15.67349 38020 ft 412 kts 310°
2026-05-07 17:19 43.26732 15.62057 38021 ft 412 kts 310°
2026-05-07 17:19 43.30976 15.56732 38015 ft 414 kts 310°
2026-05-07 17:20 43.35228 15.51389 38020 ft 414 kts 310°
2026-05-07 17:20 43.39481 15.46035 38018 ft 415 kts 310°
2026-05-07 17:21 43.43743 15.40655 38024 ft 416 kts 310°
2026-05-07 17:21 43.48004 15.35269 38016 ft 416 kts 310°
2026-05-07 17:22 43.52264 15.29872 38020 ft 416 kts 310°
2026-05-07 17:22 43.56523 15.24466 38020 ft 417 kts 310°
2026-05-07 17:23 43.60786 15.19041 38027 ft 417 kts 310°
2026-05-07 17:23 43.65060 15.13593 38017 ft 419 kts 310°
2026-05-07 17:24 43.69316 15.08157 38020 ft 419 kts 310°
2026-05-07 17:24 43.73597 15.02681 38014 ft 419 kts 310°
2026-05-07 17:25 43.77876 14.97194 38016 ft 419 kts 310°
2026-05-07 17:25 43.82151 14.91700 38018 ft 419 kts 310°
2026-05-07 17:26 43.86424 14.86198 38010 ft 419 kts 310°
2026-05-07 17:26 43.90695 14.80687 38017 ft 419 kts 310°
2026-05-07 17:27 43.94963 14.75169 38017 ft 419 kts 310°
2026-05-07 17:27 43.99226 14.69645 38013 ft 419 kts 310°
2026-05-07 17:28 44.03488 14.64112 38015 ft 419 kts 310°
2026-05-07 17:28 44.07748 14.58568 38016 ft 420 kts 310°
2026-05-07 17:29 44.12025 14.52991 38007 ft 422 kts 310°
2026-05-07 17:29 44.16309 14.47395 38012 ft 422 kts 310°
2026-05-07 17:30 44.20590 14.41792 38013 ft 422 kts 310°
2026-05-07 17:30 44.24867 14.36182 38016 ft 422 kts 310°
2026-05-07 17:31 44.29140 14.30564 38049 ft 422 kts 310°
2026-05-07 17:31 44.33418 14.24926 38012 ft 424 kts 310°
2026-05-07 17:32 44.37685 14.19293 38012 ft 425 kts 310°
2026-05-07 17:32 44.41280 14.14539 38012 ft 425 kts 310°
2026-05-07 17:33 44.46266 14.07931 38012 ft 425 kts 310°
2026-05-07 17:33 44.50550 14.02239 38032 ft 425 kts 310°
2026-05-07 17:34 44.54839 13.96527 38014 ft 426 kts 310°
2026-05-07 17:34 44.59148 13.90775 38012 ft 428 kts 310°
2026-05-07 17:35 44.63455 13.85017 38012 ft 428 kts 310°
2026-05-07 17:35 44.67762 13.79248 38019 ft 428 kts 310°
2026-05-07 17:36 44.72061 13.73474 38032 ft 428 kts 310°
2026-05-07 17:36 44.76358 13.67692 38025 ft 427 kts 310°
2026-05-07 17:37 44.80656 13.61892 38019 ft 429 kts 310°
2026-05-07 17:37 44.84939 13.56102 38018 ft 430 kts 310°
2026-05-07 17:38 44.89249 13.50265 38010 ft 429 kts 310°
2026-05-07 17:38 44.93553 13.44423 38026 ft 429 kts 309°
2026-05-07 17:39 44.97846 13.38583 38005 ft 428 kts 309°
2026-05-07 17:39 45.02129 13.32741 38007 ft 429 kts 309°
2026-05-07 17:40 45.06426 13.26867 37998 ft 430 kts 309°
2026-05-07 17:40 45.10724 13.20980 37995 ft 430 kts 309°
2026-05-07 17:41 45.15015 13.15092 38003 ft 430 kts 309°
2026-05-07 17:41 45.19308 13.09185 37992 ft 430 kts 309°
2026-05-07 17:42 45.23601 13.03266 37996 ft 431 kts 309°
2026-05-07 17:42 45.28174 12.97759 37988 ft 438 kts 317°
2026-05-07 17:43 45.33127 12.92690 37988 ft 439 kts 318°
2026-05-07 17:43 45.38140 12.87712 38002 ft 440 kts 319°
2026-05-07 17:44 45.43152 12.82737 37983 ft 439 kts 319°
2026-05-07 17:44 45.48155 12.77740 37990 ft 439 kts 319°
2026-05-07 17:45 45.53158 12.72719 37983 ft 440 kts 319°
2026-05-07 17:45 45.58158 12.67689 37983 ft 440 kts 319°
2026-05-07 17:46 45.63156 12.62650 37983 ft 440 kts 319°
2026-05-07 17:46 45.68154 12.57599 38013 ft 440 kts 319°
2026-05-07 17:47 45.73149 12.52540 37989 ft 440 kts 319°
2026-05-07 17:47 45.78145 12.47470 37986 ft 440 kts 319°
2026-05-07 17:48 45.83138 12.42391 37987 ft 440 kts 319°
2026-05-07 17:48 45.88132 12.37300 37988 ft 440 kts 318°
2026-05-07 17:49 45.93124 12.32199 37995 ft 440 kts 319°
2026-05-07 17:49 45.97305 12.27919 37989 ft 440 kts 319°
2026-05-07 17:50 46.02288 12.22806 37987 ft 440 kts 319°
2026-05-07 17:50 46.07231 12.17724 37984 ft 440 kts 319°
2026-05-07 17:51 46.12211 12.12591 37992 ft 440 kts 319°
2026-05-07 17:51 46.17184 12.07453 37993 ft 440 kts 319°
2026-05-07 17:52 46.22153 12.02308 38001 ft 440 kts 319°
2026-05-07 17:52 46.27123 11.97151 37990 ft 440 kts 319°
2026-05-07 17:53 46.32085 11.91989 37995 ft 439 kts 319°
2026-05-07 17:53 46.37047 11.86817 37996 ft 440 kts 319°
2026-05-07 17:54 46.42009 11.81627 37984 ft 440 kts 318°
2026-05-07 17:54 46.46859 11.76240 37974 ft 439 kts 316°
2026-05-07 17:55 46.51630 11.70722 37972 ft 438 kts 316°
2026-05-07 17:55 46.56397 11.65196 37963 ft 438 kts 316°
2026-05-07 17:56 46.61140 11.59716 37966 ft 439 kts 316°
2026-05-07 17:56 46.65960 11.54150 37965 ft 439 kts 316°
2026-05-07 17:57 46.69937 11.49551 37972 ft 439 kts 316°